sat.trackr.live / text

‹ back to catalog

STARLINK-30558

NORAD 58060 · 2023-158K

PAYLOAD ACTIVE UNKNOWN

§ Identity

Operator
Country
US
Launch date
2023-10-13
Launch site
AFETR
Launch vehicle
Mass (kg)
RCS (m²)

Purposes: comms

External: N2YO · Heavens-Above · Gunter

§ Orbital elements

Epoch: 2026-05-25T04:04:41.513088Z

Period
94.27 min
Inclination
43.0027°
Eccentricity
0.0001469
Mean motion
15.27588343 rev/d
Perigee alt
482.0 km
Apogee alt
484.0 km
Semi-major
6,861.2 km
B*
1.2510e-4
RAAN
315.3728°
Arg perigee
271.8913°
Mean anomaly
88.1771°
Rev number
14,526

§ Raw data

STARLINK-305581 58060U 23158K   26145.16992492  .00003183  00000+0  12510-3 0  99942 58060  43.0027 315.3728 0001469 271.8913  88.1771 15.27588343145263

JSON: /api/v1/satellites/58060 · /tle

For live sub-satellite position, see the globe view (requires WebGL).

§ Visibility from observer

Set your observer location to see the next 7 days of passes ≥ 10°. The values pass through the URL so the page stays shareable.

No JS? Fill the form by hand. The geolocation button needs JavaScript.